DateTime,DeltaTime,Roll,TargetAngle,Position,Power
2022-05-17 14:38:05.501,0,-27.22,-30,-11,68.83
2022-05-17 14:38:05.616,0.114996358752251,-17.64,-29.32,-10,66.72
2022-05-17 14:38:05.731,0.229992717504501,-3.07,25,-10,-90
2022-05-17 14:38:05.845,0.343993306159973,10.02,25,-10,-90
2022-05-17 14:38:05.960,0.45899972319603,16.16,25,-10,-90
2022-05-17 14:38:06.074,0.573000311851501,13.56,25,-11,-90
2022-05-17 14:38:06.189,0.687996670603752,5.52,-25.13,-11,90
2022-05-17 14:38:06.304,0.802993029356003,-4.45,-30,-10,76.52
2022-05-17 14:38:06.419,0.917999446392059,-11.87,-30,-10,75.14
2022-05-17 14:38:06.533,1.03200003504753,-14.35,-30,-11,73.83
2022-05-17 14:38:06.648,1.14699639379978,-11.42,-30,-10,68.83
2022-05-17 14:38:06.762,1.26099698245525,-5.4,-2.06,-10,-64.57
2022-05-17 14:38:06.877,1.3759933412075,1.24,23.98,-10,-90
2022-05-17 14:38:06.992,1.49099975824356,5.7,25,-11,-90
2022-05-17 14:38:07.106,1.60500034689903,6.1,13.73,-11,-77.85
2022-05-17 14:38:07.221,1.71999670565128,3.18,-11.01,-11,32.42
2022-05-17 14:38:07.335,1.83399729430676,-1.1,-30,-10,90
2022-05-17 14:38:07.451,1.94999948143959,-4.63,-30,-10,75.14
2022-05-17 14:38:07.566,2.06499584019184,-6.04,-30,-11,73.83
2022-05-17 14:38:07.680,2.17899642884731,-5.26,-24.43,-10,41
2022-05-17 14:38:07.795,2.29399278759956,-2.98,-9.84,-11,-17.14
2022-05-17 14:38:07.909,2.40799337625504,-0.51,-0.35,-10,-51.81
2022-05-17 14:38:08.024,2.52299979329109,1.18,2.14,-10,-46.76
2022-05-17 14:38:08.138,2.63700038194656,1.56,-2.28,-10,-22.73
2022-05-17 14:38:08.253,2.75199674069881,0.62,-11.33,-10,16.05
2022-05-17 14:38:08.368,2.86699309945107,-1.02,-20.12,-11,48.28
2022-05-17 14:38:08.482,2.98099368810654,-2.42,-23.96,-10,51.54
2022-05-17 14:38:08.598,3.09699587523937,-2.89,-21.57,-11,40.91
2022-05-17 14:38:08.712,3.21099646389484,-2.24,-14.34,-10,2.6
2022-05-17 14:38:08.826,3.32499705255032,-0.94,-6.99,-11,-18.07
2022-05-17 14:38:08.941,3.43999341130257,0.19,-3.8,-11,-30.98
2022-05-17 14:38:09.056,3.55499982833862,0.45,-6.68,-10,-11.75
2022-05-17 14:38:09.171,3.66999618709087,-0.22,-13.04,-11,20.91
2022-05-17 14:38:09.285,3.78399677574635,-1.36,-19.09,-11,36.79
2022-05-17 14:38:09.400,3.8989931344986,-2.29,-21.48,-10,42.85
2022-05-17 14:38:09.515,4.01399955153465,-2.55,-19.47,-10,35.68
2022-05-17 14:38:09.630,4.1289959102869,-2.03,-14.22,-10,11.57
2022-05-17 14:38:09.744,4.24299649894238,-0.94,-7.92,-10,-12.65
2022-05-17 14:38:09.859,4.35799285769463,0.24,-3.4,-10,-27.19
2022-05-17 14:38:09.973,4.4719934463501,0.97,-2.78,-11,-24.98
2022-05-17 14:38:10.088,4.58699986338615,0.86,-6.85,-10,-9.47
2022-05-17 14:38:10.202,4.70100045204163,-0.11,-13.97,-10,26.72
2022-05-17 14:38:10.318,4.81699258089066,-1.47,-20.47,-11,48.96
2022-05-17 14:38:10.433,4.93199899792671,-2.59,-23.31,-10,47.84
2022-05-17 14:38:10.547,5.04599958658218,-2.87,-20.64,-10,37.11
2022-05-17 14:38:10.661,5.16000017523766,-2.09,-13.34,-10,3.73
2022-05-17 14:38:10.776,5.27499653398991,-0.58,-4.77,-10,-29.26
2022-05-17 14:38:10.890,5.38899712264538,1.01,1.04,-11,-47.53
2022-05-17 14:38:11.006,5.50499930977821,1.91,1.29,-11,-47.01
2022-05-17 14:38:11.121,5.61999566853046,1.66,-4.68,-10,-15.53
2022-05-17 14:38:11.231,5.72999306023121,0.36,-13.77,-10,26.56
2022-05-17 14:38:11.345,5.84399364888668,-1.44,-22.25,-10,56.08
2022-05-17 14:38:11.464,5.96299320459366,-2.94,-26.26,-10,65.25
2022-05-17 14:38:11.579,6.07799962162971,-3.5,-24.02,-10,48.85
2022-05-17 14:38:11.694,6.19299598038197,-2.86,-16.62,-11,14.75
2022-05-17 14:38:11.809,6.30799233913422,-1.28,-6.93,-10,-28.42
2022-05-17 14:38:11.918,6.41699396073818,0.63,1.13,-10,-50.08
2022-05-17 14:38:12.033,6.53200037777424,2.13,4.6,-10,-58.44
2022-05-17 14:38:12.148,6.64699673652649,2.62,1.98,-10,-40.81
2022-05-17 14:38:12.263,6.76199309527874,1.79,-6.73,-11,-1.77
2022-05-17 14:38:12.378,6.8769995123148,0.04,-16.88,-11,32.3
2022-05-17 14:38:12.492,6.99100010097027,-1.79,-23.6,-10,54.47
2022-05-17 14:38:12.607,7.10599645972252,-2.87,-24.16,-10,54.31
2022-05-17 14:38:12.721,7.21999704837799,-2.83,-19.07,-11,26.83
2022-05-17 14:38:12.836,7.33499340713024,-1.76,-10.92,-10,-11.44
2022-05-17 14:38:12.951,7.4499998241663,-0.27,-3.81,-10,-30
2022-05-17 14:38:13.066,7.56499618291855,1.02,-0.21,-11,-40.62
2022-05-17 14:38:13.180,7.67899677157402,1.64,-0.89,-11,-38.37
2022-05-17 14:38:13.295,7.79399313032627,1.38,-5.69,-11,-14.87
2022-05-17 14:38:13.410,7.90899954736233,0.44,-11.96,-11,9.72
2022-05-17 14:38:13.525,8.02399590611458,-0.74,-17.13,-11,27.41
2022-05-17 14:38:13.639,8.13799649477005,-1.6,-18.71,-11,29.15
2022-05-17 14:38:13.753,8.25199708342552,-1.79,-16.49,-10,16.67
2022-05-17 14:38:13.868,8.36699344217777,-1.34,-12.1,-11,3.13
2022-05-17 14:38:13.983,8.48199985921383,-0.55,-7.85,-10,-18.5
2022-05-17 14:38:14.099,8.59799198806286,0.22,-5.23,-10,-20.01
2022-05-17 14:38:14.212,8.71099680662155,0.7,-4.83,-11,-20.34
2022-05-17 14:38:14.327,8.8259931653738,0.74,-6.63,-10,-16.26
2022-05-17 14:38:14.442,8.94099958240986,0.47,-8.89,-11,-1.44
2022-05-17 14:38:14.556,9.05500017106533,0.0900000000000003,-10.72,-11,-1.64
2022-05-17 14:38:14.671,9.16999652981758,-0.23,-11.57,-11,1.48
2022-05-17 14:38:14.785,9.28399711847305,-0.39,-11.47,-11,-0.09
2022-05-17 14:38:14.901,9.39999930560589,-0.39,-10.72,-11,-3.63
2022-05-17 14:38:15.015,9.51399989426136,-0.3,-10.03,-11,-6.14
2022-05-17 14:38:15.129,9.62800048291683,-0.31,-10.49,-11,-3.02
2022-05-17 14:38:15.244,9.74299684166908,-0.41,-11.27,-11,0.23
2022-05-17 14:38:15.359,9.85799320042133,-0.52,-11.66,-11,1.18
2022-05-17 14:38:15.474,9.97299961745739,-0.49,-10.95,-10,-2.85
2022-05-17 14:38:15.589,10.0879959762096,-0.29,-9.51,-11,-4.08
2022-05-17 14:38:15.703,10.2019965648651,0.0700000000000003,-7.57,-10,-18.29
2022-05-17 14:38:15.818,10.3169929236174,0.41,-6.45,-9,-15.35
2022-05-17 14:38:15.933,10.4319993406534,0.53,-7,-10,-7.73
2022-05-17 14:38:16.047,10.5459999293089,0.35,-8.97,-11,-5.13
2022-05-17 14:38:16.162,10.6609962880611,-0.12,-11.85,-11,2.92
2022-05-17 14:38:16.276,10.7749968767166,-0.67,-14.14,-10,11.98
2022-05-17 14:38:16.392,10.8909990638494,-1.01,-14.36,-11,15.41
2022-05-17 14:38:16.507,11.0059954226017,-0.96,-12.54,-11,0.08
2022-05-17 14:38:16.622,11.120991781354,-0.5,-9.11,-11,-13.25
2022-05-17 14:38:16.736,11.2349923700094,0.22,-5.49,-11,-27
2022-05-17 14:38:16.850,11.3489929586649,0.9,-3.25,-10,-33.98
2022-05-17 14:38:16.966,11.4649951457977,1.21,-3.8,-11,-24
2022-05-17 14:38:17.079,11.5779999643564,0.95,-7.21,-10,-14.58
2022-05-17 14:38:17.194,11.6929963231087,0.21,-11.86,-11,10.2
2022-05-17 14:38:17.308,11.8069969117641,-0.75,-16.17,-10,19.52
2022-05-17 14:38:17.423,11.9219932705164,-1.52,-18.06,-11,30.09
2022-05-17 14:38:17.537,12.0359938591719,-1.77,-16.68,-11,15.16
2022-05-17 14:38:17.653,12.1519960463047,-1.36,-12.37,-11,-2.73
2022-05-17 14:38:17.768,12.266992405057,-0.42,-6.74,-11,-25.13
2022-05-17 14:38:17.882,12.3809929937124,0.69,-2.11,-10,-41.32
2022-05-17 14:38:17.997,12.4959994107485,1.5,-0.63,-10,-38.48
2022-05-17 14:38:18.111,12.609999999404,1.73,-2.34,-10,-30.16
2022-05-17 14:38:18.226,12.7249963581562,1.34,-6.41,-11,-12.75
2022-05-17 14:38:18.341,12.8399927169085,0.53,-11.03,-10,-0.3
2022-05-17 14:38:18.455,12.9539933055639,-0.44,-15.18,-10,20.74
2022-05-17 14:38:18.570,13.0689997226,-1.32,-17.81,-10,27.61
2022-05-17 14:38:18.684,13.1830003112555,-1.69,-16.89,-11,20.28
2022-05-17 14:38:18.799,13.2979966700077,-1.35,-12.64,-10,-4.11
2022-05-17 14:38:18.914,13.41299302876,-0.45,-7.03,-10,-20.16
2022-05-17 14:38:19.029,13.527999445796,0.56,-3.01,-10,-34.5
2022-05-17 14:38:19.144,13.6429958045483,1.26,-1.91,-10,-35.37
2022-05-17 14:38:19.259,13.7579921633005,1.4,-3.88,-10,-24.84
2022-05-17 14:38:19.373,13.871992751956,1.07,-7.08,-10,-11.97
2022-05-17 14:38:19.487,13.9859933406115,0.36,-11.22,-10,4.26
2022-05-17 14:38:19.603,14.1019955277443,-0.47,-14.67,-10,16.22
2022-05-17 14:38:19.716,14.215000346303,-1.13,-16.17,-10,19.64
2022-05-17 14:38:19.832,14.330992475152,-1.29,-14.6,-11,10.38
2022-05-17 14:38:19.946,14.4449930638075,-0.84,-10.37,-10,-13.31
2022-05-17 14:38:20.061,14.5599994808435,-0.0499999999999998,-6.1,-11,-22.87
2022-05-17 14:38:20.176,14.6749958395958,0.71,-3.59,-10,-36.5
2022-05-17 14:38:20.290,14.7889964282513,1.11,-3.74,-10,-26.82
2022-05-17 14:38:20.405,14.9039927870035,1.11,-5.51,-11,-20.06
2022-05-17 14:38:20.520,15.0189992040396,0.84,-7.6,-11,-17.32
2022-05-17 14:38:20.634,15.132999792695,0.49,-9.18,-11,-11.17
2022-05-17 14:38:20.749,15.2479961514473,0.12,-10.6,-10,-6.27
2022-05-17 14:38:20.864,15.3629925101995,-0.21,-11.55,-11,1.54
2022-05-17 14:38:20.979,15.4779989272356,-0.43,-11.83,-11,-4.45
2022-05-17 14:38:21.093,15.5919995158911,-0.48,-11.3,-11,-6.11
2022-05-17 14:38:21.208,15.7069958746433,-0.41,-10.54,-11,-9.18
2022-05-17 14:38:21.323,15.8219922333956,-0.23,-9.41,-10,-13.86
2022-05-17 14:38:21.437,15.935992822051,0,-8.35,-10,-12.81
2022-05-17 14:38:21.552,16.0509992390871,0.32,-6.88,-10,-20.24
2022-05-17 14:38:21.667,16.1659955978394,0.67,-5.51,-10,-25.46
2022-05-17 14:38:21.781,16.2799961864948,0.95,-4.83,-11,-27.46
2022-05-17 14:38:21.895,16.3939967751503,1,-5.66,-11,-27.9
2022-05-17 14:38:22.010,16.5089931339025,0.65,-8.6,-10,-13.5
2022-05-17 14:38:22.126,16.6249953210354,-0.00999999999999979,-12.28,-10,5.85
2022-05-17 14:38:22.240,16.7389959096909,-0.68,-14.73,-11,12.18
2022-05-17 14:38:22.354,16.8529964983463,-0.96,-13.95,-10,0.51
2022-05-17 14:38:22.469,16.9679928570986,-0.63,-10.17,-11,-10.81
2022-05-17 14:38:22.585,17.0839950442314,0.2,-5.04,-11,-37.77
